Search flights

Tessera Airport, Venice (LIPZ)

Airport Weather & NOTAM's

METAR for:LIPZ (Venice/Polo Arpt, VE, IT)
Text:LIPZ 232120Z 12004KT 9999 SCT070 17/13 Q1017 NOSIG
Conditions at:2120 UTC 23 May 2024
Temperature: 17.0°C ( 63°F)
Dewpoint: 13.0°C ( 55°F) [RH = 77%]
Pressure (altimeter):30.03 inches Hg (1017.0 mb)
Winds:from the ESE (120 degrees) at 5 MPH (4 knots; 2.1 m/s)
Visibility:6 or more sm (10+ km)
Ceiling:at least 12,000 feet AGL
Clouds:scattered clouds at 7000 feet AGL
TAF for:LIPZ (Venice/Polo Arpt, VE, IT) issued at 1700 UTC 23 May 2024
Text:TAF LIPZ 231700Z 2318/2424 VRB05KT 9999 SCT030
Forecast period:1800 UTC 23 May 2024 to 1100 UTC 24 May 2024
Forecast type:FROM: standard forecast or significant change
Winds:variable direction winds at 6 MPH (5 knots; 2.6 m/s)
Visibility:6 or more sm (10+ km)
Ceiling:at least 12,000 feet AGL
Clouds:scattered clouds at 3000 feet AGL
Text:TEMPO 2401/2406 3000 BCFG
Forecast period:0100 to 0600 UTC 24 May 2024
Forecast type:TEMPORARY: The following changes expected for less than half the time period
Visibility:1.86 sm (2.99 km)
Weather:BCFG (patches of fog)
Text:BECMG 2411/2413 15010KT
Forecast period:1100 to 1700 UTC 24 May 2024
Forecast type:BECOMING: Conditions expected to become as follows by 1300 UTC 24 May 2024
Winds:from the SSE (150 degrees) at 12 MPH (10 knots; 5.1 m/s)
Visibility:6 or more sm (10+ km)
Ceiling:at least 12,000 feet AGL
Clouds:scattered clouds at 3000 feet AGL
Text:BECMG 2417/2419 VRB05KT
Forecast period:1700 UTC 24 May 2024 to 0000 UTC 25 May 2024
Forecast type:BECOMING: Conditions expected to become as follows by 1900 UTC 24 May 2024
Winds:variable direction winds at 6 MPH (5 knots; 2.6 m/s)
Visibility:6 or more sm (10+ km)
Ceiling:at least 12,000 feet AGL
Clouds:scattered clouds at 3000 feet AGL

Live Departures & Arrivals

There are currently no arrivals or departures for this airport.

Departures History (last 12 months)

Flight No. Dest. Aircraft Date
VOY1955H256 LI08 Asobo Cabr... 2024-05-14 14:57:33
VOY1955H255 LI08 500E MAGNU... 2024-05-14 14:18:00
VOY3177 LDZA Fenix A320... 2024-05-05 12:44:24
VFR LIPH Baron G58... 2024-05-04 09:09:56
VOY317 LIMF FenixA320... 2024-04-25 15:33:04
VOY3177 LIRF FWB Alital... 2024-04-14 13:54:04
VOY3131 LIRQ Fenix A320... 2024-04-10 14:11:56
VOY3177 LIRF Fenix A320... 2024-04-03 12:54:45
VOY3177 LSZH FenixA320... 2024-03-28 15:31:08
VOY3177 LIRN FenixA320... 2024-03-24 13:42:35
VOY3131 LIRQ Fenix A320... 2024-03-17 13:47:56
VOY3177 LIMJ Fenix A320... 2024-03-06 16:13:03
VOY3177 LIRF FenixA320... 2024-03-03 15:32:26
VOY3177 LIRN FWB Alital... 2024-03-01 14:05:21
VOY3177 LIML FWB Alital... 2024-02-29 15:37:15
VOY3177 EDDM FWB Alital... 2024-02-22 14:30:22
VOY3131 LIRP FenixA320_... 2024-02-13 14:02:13
WF69 LFPG ProsimB738... 2024-02-06 15:37:07
WF69 LOWI ProsimB738... 2024-01-22 18:14:22
VOI2968 LIPZ C172 2024-01-14 12:00:00
VOY1968 LIPH C172 2024-01-05 22:30:00
VOY1968 LIPH C172 2024-01-05 22:30:00
VOY2001 EGSS PMDG 737-8... 2024-01-04 20:56:14
VOY1968 LIPZ Cessna Sky... 2023-12-28 09:12:39
VOY3177 LIMC Airbus A32... 2023-12-20 16:11:04
VOY3177 LIMC PMDG 737-8... 2023-12-15 16:54:01
VOY2025 LIMJ Airbus A32... 2023-12-13 18:19:32
VOY1968 GCLP Prosim_B73... 2023-12-05 11:23:00
VOY3131 LIMC FenixA320_... 2023-12-03 14:03:40
VOY1968 LOWI Prosim_B73... 2023-12-03 16:11:30
VOY3131 LIMC FenixA320_... 2023-12-02 14:53:13
VY1968 LIRA Prosim_B73... 2023-11-28 16:17:34
VI6899 LIRA PMDG 737-8... 2023-11-15 21:40:06
VOY3131 LOWI FenixA320_... 2023-11-13 13:38:35
VI3131 LIMJ FenixA320_... 2023-11-11 14:11:22
VI3177 LOWI Airbus A32... 2023-11-06 15:57:27
VI3131 LOWI FenixA320_... 2023-11-05 13:49:16
VI3131 LOWI FenixA320_... 2023-10-28 12:28:43
VOI2031 LIBP C172R VOI 2023-10-25 08:24:00
VOI2031 LIPQ C172R VOI 2023-10-24 08:35:22
VI3177 LIME ATR 72-600... 2023-10-21 13:45:06
VI3131 LIPX Hans Hartm... 2023-10-19 13:41:04
VI3131 LIML FenixA320_... 2023-10-16 13:51:00
WF69 LIEO Prosim_737... 2023-10-13 19:19:54
VI3177 EDDM FWB Alital... 2023-10-10 14:31:18
VOY1968 LIRA PMDG 737-8... 2023-09-30 15:42:22
VOY1968 LIPZ Prosim_B73... 2023-09-28 13:31:05
VOY1968 BIKF PMDG 737-8... 2023-09-24 13:11:06
WF69 LIEO Prosim_737... 2023-09-17 08:30:17
VI3177 LIRF Airbus A32... 2023-09-09 13:33:56
VI3177 LIMJ FWB Alital... 2023-08-29 13:16:23
VI3177 LIMJ FWB Alital... 2023-08-28 14:28:23
VI3177 LIMJ FWB Alital... 2023-08-25 13:59:40
AZA3131 LIMJ FenixA320_... 2023-08-25 12:44:31
VI3177 LIMJ FWB Alital... 2023-08-24 12:48:52
VI3177 LIPE FWB Alital... 2023-08-22 14:30:49
VI3131 LIPE FWB Alital... 2023-08-22 19:29:33
VI3177 LIPE ATR 42-600... 2023-08-11 13:11:51
VOY2001 LOWI PMDG 737-7... 2023-08-06 13:37:43
VI3131 LIPZ ATR 42-600... 2023-08-06 15:18:40
VI3131 LIPZ ATR72-600... 2023-08-05 15:15:45
VI3131 LIPZ ATR72-600... 2023-08-04 14:34:52
VI3131 LIPR PMDG 737-8... 2023-07-28 12:21:19
VI3177 LIPR FWB Alital... 2023-07-27 14:49:45
VI3131 LIPR FWB Alital... 2023-07-27 14:20:40
VI3131 LIPR Hans Hartm... 2023-07-27 13:23:14
VOY2001 EDDF PMDG 737-8... 2023-07-26 20:12:53
VOY1955159 LIPH Cessna Sky... 2023-07-26 19:06:41
VI3131 LIPR FWB Alital... 2023-07-26 15:34:44
VI3131 EDDM ATR72-600... 2023-07-21 12:07:12
VI3131 LIPX ATR72-600... 2023-07-20 13:28:30
VOY1969 LOWI Prosim_B73... 2023-07-17 09:06:51
TEST LIPZ Prosim_B73... 2023-07-07 17:34:44
VI3177 LIRN FWB Alital... 2023-07-04 13:35:14
VI3177 LIEO FWB Alital... 2023-06-28 13:38:33
VI3177 LIEE FWB Alital... 2023-06-27 13:14:46
TEST LIPZ Prosim_B73... 2023-06-27 16:56:50
TEST LIPZ Prosim_B73... 2023-06-27 15:40:12
VOY2001 LIEO PMDG 737-8... 2023-06-26 20:01:31
VI3177 LIRN FWB Alital... 2023-06-20 14:10:50
VI3177 LIRF FWB Alital... 2023-06-19 14:40:56
VI3177 LIRF FWB Alital... 2023-06-10 12:29:23
VI3131 LIPR ATR 42-600... 2023-06-10 12:38:00
VI3177 LIMJ PMDG 737-7... 2023-06-08 16:14:50
VI3177 LIRF FWB Alital... 2023-06-06 14:17:57
WF69 LIRA PROSIM_737... 2023-06-03 13:27:55
VOY1968 LIRA PMDG 737-8... 2023-06-03 13:32:30
VI3131 LIMC FWB Alital... 2023-06-03 15:37:39
VOY2025 VATSIM LIMF Learjet 45... 2023-06-01 13:31:30

Arrivals History (last 12 months)

Flight No. Origin Aircraft Date
VOY3131 LIPX Fenix A320... 2024-05-14 13:44:59
VOY3131 LIPX Cessna Sky... 2024-05-03 14:49:52
VOY3131 LIPB Fenix A320... 2024-04-16 12:39:54
VOY3131 LIML Fenix A320... 2024-04-06 16:22:14
VOY3177 LSZH Fenix A320... 2024-04-05 14:18:16
VOY3131 LIRP Fenix A320... 2024-04-01 16:21:53
VOY2001 LIPH Cessna Sky... 2024-03-31 09:26:35
VOY3131 LIPX ATR72-600... 2024-03-29 14:25:31
AER.MSESE LEMD PMDG 737-8... 2024-03-18 22:39:36
VOY3131 LIPR Fenix A320... 2024-02-29 14:18:01
VOY3131 LIPH ATR 72-600... 2024-02-26 14:50:23
VOY3131 LIMJ FenixA320_... 2024-02-26 14:06:31
VOY3177 LIRP FWB Alital... 2024-02-15 15:16:19
VOY3131 LIPB FenixA320_... 2024-01-20 15:56:09
VOY3131 LIPB ATR72-600... 2024-01-20 15:00:45
VOY3131 LIML FenixA320_... 2024-01-19 14:37:25
VOI2968 LIPZ C172 2024-01-14 12:57:00
VOY3177 LHBP FWB Alital... 2024-01-13 15:39:44
VOY2001 LIEE PMDG 737-8... 2024-01-02 21:35:09
VOY1968 LIPZ Cessna Sky... 2023-12-28 09:52:49
VOY3177 LOWI Airbus A32... 2023-12-26 15:02:57
VOY3177 LOWI Airbus A32... 2023-12-23 15:45:10
VOY3131 LIPX ATR72-600... 2023-12-23 16:20:43
{}N320SB LIRF FWB Alital... 2023-12-22 15:54:56
VOY3177 LIMJ Airbus A32... 2023-12-15 15:10:26
VOY3131 LICJ FenixA320_... 2023-12-14 15:13:07
VOY3177 LIMJ FWB Alital... 2023-12-13 16:35:46
VOY3131 LIPR FenixA320_... 2023-12-13 17:37:30
VOY3177 LIMJ Airbus A32... 2023-12-08 16:22:06
VOY3131 LIMF PMDG 737-8... 2023-12-08 14:56:21
VOY3131 LIRQ FenixA320_... 2023-12-01 13:58:37
VY1968 LIRA Prosim_B73... 2023-11-28 18:35:13
VOY3131 LIRF FenixA320_... 2023-11-22 15:37:58
VOY3177 LIMF PMDG 737-8... 2023-11-19 15:12:05
VI3131 LIPE FenixA320_... 2023-11-08 14:22:31
VI3177 LIPE Airbus A32... 2023-11-07 17:32:53
VI3177 EDDM Airbus A32... 2023-11-07 15:46:07
VI3177 LOWI Airbus A32... 2023-10-29 15:34:26
VI3131 LIMF FenixA320_... 2023-10-29 15:39:28
VI3131 LIPA FenixA320_... 2023-10-26 14:31:41
VI3131 LIRQ ATR 42-600... 2023-10-21 14:27:11
VI3177 LIPX ATR 72-600... 2023-10-18 14:28:54
VI3131 LIPX ATR 42-600... 2023-10-18 13:05:25
VI3177 EDDM FWB Alital... 2023-10-09 15:50:37
VOY1968 LIPZ Prosim_B73... 2023-09-28 14:08:59
VI3131 LIPB ATR72-600... 2023-09-20 13:44:13
VI3131 LIMJ FenixA320_... 2023-09-14 13:26:09
VFR LIPQ Cessna 208... 2023-09-05 21:36:12
VI3177 LOWI FWB Alital... 2023-09-03 15:48:34
VI3177 LOWI FWB Alital... 2023-09-02 14:46:19
VOY1968 LIBR Prosim_B73... 2023-08-18 17:11:43
VI3131 LIPX FenixA320_... 2023-08-10 20:52:52
VI3177 LIPQ ATR 72-600... 2023-08-09 16:00:21
VI3131 LIPX ATR42-600... 2023-08-09 14:03:50
VOY1968 LIPQ Prosim_B73... 2023-08-07 14:41:14
VI3131 LIPZ ATR 42-600... 2023-08-06 15:44:09
VOY2001 LIRF PMDG 737-8... 2023-08-05 12:01:25
VI3131 LIPZ ATR72-600... 2023-08-05 15:41:20
VI3131 LIPZ ATR72-600... 2023-08-04 15:02:17
VI3131 EDDM FenixA320_... 2023-08-03 13:47:47
VI3177 LIME ATR 72-600... 2023-08-02 14:35:05
VOY1968 LIPQ Prosim_B73... 2023-08-01 08:16:31
VI3131 LIME ATR72-600... 2023-08-01 14:47:35
VI3210 LICJ Prosim_B73... 2023-07-31 21:11:06
VI3131 LIRN FWB Alital... 2023-07-30 14:44:51
VI3131 LIPH ATR72-600... 2023-07-29 14:28:23
VI3131 EDDM FWB Alital... 2023-07-26 15:13:02
VOY2001 LFPG PMDG 737-8... 2023-07-25 21:41:34
VI3131 LIPB ATR72-600... 2023-07-23 13:52:44
VI3131 LIPY ATR72-600... 2023-07-22 16:48:01
VI3131 EDDM FWB Alital... 2023-07-21 15:12:46
VOY1968 LOWI Prosim_B73... 2023-07-17 16:14:41
VOY1955H100 LIPV Bell 407 G... 2023-07-14 15:56:21
VI3177 LIPE ATR 42-600... 2023-07-14 15:27:11
VI3131 LIPE IADLH 2023-07-12 14:45:54
TEST LIPZ Prosim_B73... 2023-07-07 18:02:39
VI3177 LSZH PMDG 737-7... 2023-07-06 14:18:45
VI3131 LIPB FenixA320_... 2023-07-05 14:52:36
VI3131 LIPB Microsoft_... 2023-07-05 13:55:31
VI3131 LIPX Microsoft_... 2023-06-30 14:11:05
TEST LIPZ Prosim_B73... 2023-06-27 17:19:00
TEST LIPZ Prosim_B73... 2023-06-27 16:22:37
VI3131 LIPB Microsoft_... 2023-06-16 13:54:37
VI3131 LIPX Microsoft_... 2023-06-15 13:56:30
VI3131 LIPX ATR 42-600... 2023-06-07 17:10:30
VI3131 LIMF FenixA320_... 2023-06-05 13:58:14
VOY2025 LIRN Airbus A32... 2023-05-31 15:05:26
VY1968 LICJ PMDG 737-8... 2023-05-24 20:45:35

Runway Information (Airport elevation: 6ft)

Runway 04L Length 9,103ft Width 138ft Elevation 6ft Surface Asphalt Heading 42
Runway 04R Length 10,873ft Width 144ft Elevation 6ft Surface Asphalt Heading 42
Runway 22L Length 10,873ft Width 144ft Elevation 6ft Surface Asphalt Heading 222
Runway 22R Length 9,103ft Width 138ft Elevation 6ft Surface Asphalt Heading 222

Airport Frequencies

Type APP/DEP Frequency 118.255 Mhz
Type APP/DEP Frequency 118.900 Mhz
Type ATIS Frequency 128.655 Mhz
Type Clearance Frequency 118.255 Mhz
Type Ground Frequency 118.255 Mhz
Type Ground Frequency 121.705 Mhz
Type Tower Frequency 118.255 Mhz
Type Tower Frequency 120.200 Mhz
Type CTR Frequency 118.900 Mhz
Type CTR Frequency 134.750 Mhz
Type Ground Frequency 118.255 Mhz
Type Ground Frequency 121.705 Mhz
Type Tower Frequency 118.255 Mhz
Type Tower Frequency 120.200 Mhz

Airport Navaids

Type VOR-DME Ident TES Frequency 115300 Khz
Type NDB Ident VEN Frequency 379 Khz